W9KOZ-6 Weather Reports


time (UTC)temp
F
wind
direction
speed
knots
gust
knots
rain 1hr
in
rain 24hr
in
rain mn
in
humidity
%
barometer
mb
20260506030335 32 41 5.2 9.6 0.00 0.18 0.16 99 1024.9
20260506030251 32 27 6.1 10.4 0.00 0.18 0.16 99 1024.9
20260506024332 32 29 5.2 10.4 0.00 0.18 0.16 99 1024.9
20260506023811 32 341 6.1 10.4 0.00 0.18 0.16 99 1024.9
20260506022812 32 359 6.1 11.3 0.00 0.18 0.16 99 1024.9
20260506021333 32 330 7.0 11.3 0.00 0.18 0.16 99 1024.9
20260506020333 33 11 7.8 13.0 0.00 0.18 0.16 99 1025.0
20260506015327 33 0 4.3 9.6 0.00 0.18 0.16 99 1025.0
20260506014326 33 0 4.3 7.8 0.00 0.18 0.16 99 1025.0
20260506013327 33 331 5.2 10.4 0.00 0.18 0.16 99 1025.0
20260506012326 34 0 6.1 11.3 0.01 0.19 0.16 99 1025.0
20260506011326 35 0 2.6 4.3 0.02 0.21 0.16 99 1025.1
20260506010326 35 15 1.7 3.5 0.03 0.21 0.16 99 1025.1
20260506005326 35 87 1.7 5.2 0.03 0.21 0.16 99 1025.1
20260506004322 35 136 2.6 5.2 0.02 0.21 0.15 99 1025.1
20260506003322 35 112 2.6 5.2 0.03 0.21 0.15 99 1025.1
20260506002318 35 147 3.5 6.1 0.02 0.23 0.15 99 1025.1
20260506001316 35 135 2.6 5.2 0.01 0.22 0.13 99 1025.1
20260506000316 35 110 4.3 7.8 0.02 0.22 0.13 99 1025.1
20260505235317 35 107 4.3 9.6 0.02 0.22 0.13 99 1025.2
20260505234318 36 136 5.2 9.6 0.02 0.22 0.13 99 1025.2
20260505233317 36 127 3.5 10.4 0.02 0.22 0.13 99 1025.2
20260505232317 36 122 6.1 13.0 0.02 0.22 0.13 99 1025.2
20260505231317 36 130 5.2 11.3 0.02 0.21 0.12 99 1025.2
20260505230314 36 130 6.1 11.3 0.00 0.20 0.11 99 1025.2
20260505225311 36 124 7.0 11.3 0.00 0.20 0.11 99 1025.2
20260505224312 36 63 4.3 10.4 0.00 0.20 0.11 99 1025.2
20260505223311 36 111 5.2 11.3 0.00 0.20 0.11 99 1025.2
20260505222312 36 122 6.1 13.0 0.03 0.20 0.11 99 1025.2
20260505221312 36 73 5.2 10.4 0.04 0.20 0.11 99 1025.3
20260505220312 36 127 5.2 11.3 0.04 0.20 0.11 99 1025.3
20260505215750 36 125 6.1 11.3 0.04 0.20 0.11 99 1025.3
20260505214309 36 139 7.0 13.0 0.04 0.20 0.11 99 1025.3
20260505213748 36 131 6.1 14.8 0.04 0.20 0.11 99 1025.2
20260505212310 37 70 5.2 13.9 0.03 0.21 0.08 99 1025.3
20260505211310 36 127 6.1 12.2 0.02 0.20 0.07 99 1025.3
20260505210310 36 139 6.1 9.6 0.03 0.22 0.07 99 1025.3
20260505205310 36 59 5.2 9.6 0.04 0.22 0.07 99 1025.3
20260505204310 36 89 7.0 17.4 0.04 0.22 0.07 99 1025.3
20260505203308 36 321 6.1 17.4 0.03 0.22 0.06 99 1025.3
20260505202308 36 77 6.1 11.3 0.03 0.20 0.05 99 1025.3
20260505201308 37 95 6.1 12.2 0.03 0.20 0.05 99 1025.3
20260505200307 37 151 5.2 14.8 0.02 0.19 0.04 99 1025.3
20260505195308 37 106 6.1 14.8 0.02 0.20 0.04 99 1025.3
20260505194308 37 66 6.1 11.3 0.01 0.24 0.03 99 1025.3
20260505193310 37 117 4.3 8.7 0.01 0.26 0.03 99 1025.3
20260505192752 37 338 3.5 10.4 0.00 0.25 0.02 99 1025.5
20260505191303 37 124 3.5 13.0 0.00 0.25 0.02 99 1025.5
20260505190303 37 105 2.6 13.0 0.00 0.25 0.02 99 1025.5
20260505185305 37 121 1.7 4.3 0.00 0.25 0.02 99 1025.5
20260505184303 37 124 1.7 3.5 0.00 0.25 0.02 99 1025.5
20260505183746 36 41 1.7 2.6 0.00 0.25 0.02 99 1025.3
20260505182305 37 346 2.6 4.3 0.00 0.25 0.02 99 1025.3
20260505181304 37 338 2.6 5.2 0.00 0.25 0.02 99 1025.3
20260505180258 37 343 3.5 6.1 0.00 0.25 0.02 99 1025.3
20260505175257 37 343 4.3 7.0 0.00 0.25 0.02 99 1025.3
20260505174258 36 70 4.3 8.7 0.00 0.25 0.02 99 1025.3
20260505173258 36 305 7.8 13.9 0.00 0.25 0.02 99 1025.3
20260505172739 36 3 7.8 13.0 0.00 0.25 0.02 99 1025.2
20260505171258 36 7 5.2 9.6 0.00 0.25 0.02 99 1025.2
20260505170258 36 359 6.1 9.6 0.00 0.26 0.02 99 1025.2
20260505165255 36 351 6.1 10.4 0.00 0.28 0.02 99 1025.2
20260505164252 36 339 7.0 10.4 0.00 0.28 0.02 99 1025.2
20260505163253 36 4 7.0 12.2 0.02 0.29 0.02 99 1025.2
20260505162253 36 357 6.1 9.6 0.02 0.30 0.02 99 1025.2
20260505161253 36 5 7.8 11.3 0.02 0.30 0.02 99 1025.2
20260505160253 37 352 7.0 9.6 0.02 0.31 0.02 99 1025.2
20260505153251 37 338 7.8 11.3 0.00 0.38 0.00 99 1025.2
20260505152251 37 2 7.0 12.2 0.00 0.40 0.00 99 1025.2
20260505151251 37 4 7.8 12.2 0.00 0.41 0.00 99 1025.2
20260505150251 37 11 7.8 11.3 0.00 0.43 0.00 99 1025.3
20260505140249 41 127 2.6 6.1 0.00 0.62 0.00 99 1025.6
20260505130243 42 148 2.6 4.3 0.00 0.62 0.00 99 1025.7
20260505124723 43 162 2.6 6.1 0.00 0.62 0.00 99 1025.7
20260505123245 43 132 2.6 6.1 0.00 0.62 0.00 99 1025.7
20260505122246 43 129 3.5 7.0 0.00 0.62 0.00 99 1025.7
20260505121239 43 0 3.5 6.1 0.00 0.62 0.00 99 1025.7
20260505121211 44 0 1.7 7.0 0.00 0.62 0.00 99 1025.7
20260505115238 44 186 2.6 7.0 0.00 0.62 0.00 99 1025.8
20260505114238 44 118 1.7 5.2 0.00 0.62 0.00 99 1025.8
20260505113238 44 0 1.7 5.2 0.00 0.62 0.00 99 1025.8
20260505112239 45 0 0.9 3.5 0.00 0.62 0.00 99 1025.8
20260505111239 45 0 0.9 2.6 0.00 0.62 0.00 99 1025.8
20260505110715 45 166 1.7 5.2 0.00 0.62 0.00 99 1025.8
20260505101224 44 216 1.7 2.6 0.00 0.62 0.00 99 1025.6
20260505100219 44 254 1.7 4.3 0.00 0.62 0.00 99 1025.6
20260505095219 44 260 2.6 4.3 0.00 0.62 0.00 99 1025.5
20260505094219 45 187 2.6 3.5 0.00 0.62 0.00 99 1025.6
20260505093217 45 230 1.7 3.5 0.00 0.62 0.00 99 1025.6
20260505092214 45 216 1.7 2.6 0.00 0.62 0.00 99 1025.6
20260505091214 45 226 1.7 2.6 0.00 0.62 0.00 99 1025.6
20260505090214 46 327 0.9 2.6 0.00 0.62 0.00 99 1025.6
20260505085214 46 131 1.7 3.5 0.00 0.62 0.00 99 1025.7
20260505084215 46 77 1.7 2.6 0.00 0.62 0.00 99 1025.8
20260505083215 46 346 1.7 3.5 0.00 0.62 0.00 99 1025.8
20260505082213 46 9 1.7 4.3 0.00 0.62 0.00 99 1025.8
20260505081209 46 339 2.6 4.3 0.00 0.62 0.00 99 1025.9
20260505080210 46 356 2.6 6.1 0.00 0.62 0.00 99 1025.9
20260505075210 46 338 3.5 6.1 0.00 0.62 0.00 99 1025.9
20260505074646 46 355 3.5 6.1 0.00 0.62 0.00 99 1025.9
20260505073649 46 337 3.5 6.1 0.00 0.62 0.00 99 1025.9
20260505072207 46 349 4.3 7.8 0.00 0.62 0.00 99 1025.8
20260505071208 46 5 4.3 7.0 0.00 0.62 0.00 99 1025.8
20260505070208 46 329 3.5 7.0 0.00 0.62 0.00 99 1025.8
20260505065209 46 332 3.5 7.8 0.00 0.62 0.00 99 1025.8
20260505064209 46 349 3.5 6.1 0.01 0.62 0.00 99 1025.7
20260505063208 46 299 2.6 5.2 0.02 0.62 0.00 99 1025.7
20260505062207 46 333 2.6 5.2 0.02 0.62 0.00 99 1025.7
20260505061205 46 10 3.5 6.1 0.02 0.62 0.00 99 1025.7
20260505060204 46 48 3.5 6.1 0.02 0.62 0.00 99 1025.8
20260505055205 47 353 3.5 6.1 0.02 0.61 0.61 99 1025.8
20260505054205 47 351 4.3 7.0 0.01 0.61 0.61 99 1025.8
20260505053205 48 60 3.5 6.1 0.00 0.63 0.60 99 1025.8
20260505052205 49 35 3.5 7.8 0.00 0.63 0.60 99 1025.9
20260505051202 49 349 5.2 8.7 0.00 0.63 0.60 99 1026.1
20260505050203 49 3 4.3 7.8 0.00 0.63 0.60 99 1026.1
20260505041201 49 339 5.2 10.4 0.00 0.63 0.60 99 1026.1
20260505040641 49 9 5.2 8.7 0.00 0.63 0.60 99 1026.1
20260505035201 49 330 5.2 10.4 0.00 0.63 0.60 99 1026.1
20260505034201 49 339 5.2 9.6 0.00 0.63 0.60 99 1026.1
20260505033201 50 320 5.2 10.4 0.00 0.63 0.60 99 1026.1
20260505032158 50 330 6.1 10.4 0.00 0.63 0.60 99 1026.1
20260505031158 51 333 5.2 9.6 0.00 0.63 0.60 99 1026.1